Wind_Speed
29 31 32 35 39 42 43 46 48 50 52 55 57 54 53 54 56 57 57 59 60 54 63 66 64 66 64 64 61 62 63 61 58 57 56 53 50 50 47 41 39 39 41 40
27 28 33 36 38 41 43 46 49 49 51 54 56 57 51 53 56 57 59 59 59 57 59 63 72 67 71 69 67 64 63 63 62 59 56 57 54 52 50 46 42 42 45 44
25 27 30 33 36 39 41 46 51 53 54 56 59 58 56 56 59 58 57 58 59 59 59 59 66 70 71 72 72 67 66 64 57 55 58 59 56 48 50 49 44 46 47 45
25 27 30 32 36 38 41 43 48 49 53 56 54 62 58 58 61 62 61 60 60 61 60 60 59 64 68 68 71 71 67 65 61 57 53 43 38 39 43 47 49 50 49 47
25 25 27 31 31 33 38 40 44 49 54 58 56 62 58 57 60 59 63 62 63 62 63 60 59 55 62 64 67 69 70 64 59 53 45 34 33 36 47 52 53 52 49 43
27 30 33 29 29 31 37 41 46 47 47 55 54 55 59 60 59 57 59 65 67 66 65 64 61 59 55 58 63 64 62 58 56 53 43 36 35 34 33 36 44 46 43 43
29 23 25 26 28 29 27 33 40 40 35 38 37 48 57 60 59 64 66 63 65 66 68 64 61 60 59 56 56 57 60 57 53 48 40 34 34 36 38 38 33 32 35 37
27 19 17 24 28 30 29 30 31 37 28 22 23 36 34 45 43 55 64 67 64 63 65 65 65 63 59 57 54 55 55 54 53 49 41 34 32 36 40 37 30 33 34 36
20 18 19 27 30 32 31 32 29 37 35 35 20 20 30 27 33 35 45 56 60 58 61 61 64 63 61 58 53 47 51 49 47 43 40 36 35 37 40 37 35 34 38 31
19 25 24 27 27 29 30 34 32 30 31 33 27 29 26 30 36 37 37 42 51 58 54 55 56 58 60 59 56 49 43 44 43 41 38 37 37 37 35 34 35 36 33 30
21 23 20 19 22 26 29 32 32 30 30 37 35 29 24 25 29 34 38 43 43 50 51 50 53 54 55 56 56 52 42 39 39 39 39 37 37 36 34 33 33 33 31 29
17 24 23 16 22 26 30 29 33 34 34 27 29 29 25 24 22 31 38 40 45 46 49 50 50 52 53 52 51 49 47 44 43 39 37 38 38 37 34 30 30 30 29 27
19 21 25 23 24 30 23 23 24 32 37 36 37 29 31 27 27 34 34 35 31 40 44 48 50 50 50 49 46 49 49 44 45 42 41 40 38 33 30 29 29 27 27 25
21 20 23 28 30 34 24 19 26 29 32 32 28 31 25 24 29 32 29 30 32 31 39 54 55 47 47 49 52 49 45 46 42 40 36 33 28 27 27 26 25 26 23 22
19 18 22 27 24 26 21 16 18 26 30 32 26 33 29 27 28 33 25 17 20 26 46 57 52 61 59 56 45 44 43 48 41 36 31 25 26 26 24 25 23 23 23 21
18 22 21 22 21 24 19 16 13 16 24 32 37 34 28 31 20 20 24 35 18 30 43 40 38 36 36 39 49 50 41 42 41 30 27 25 25 24 24 24 23 22 22 19
16 20 18 20 21 27 24 19 14 18 21 25 25 27 31 26 17 15 10 4 23 35 32 29 43 14 33 43 50 55 39 38 35 30 29 27 27 26 24 22 22 23 20 19
16 17 19 19 20 21 26 25 23 23 19 17 20 24 24 21 17 14 16 6 11 20 32 34 36 32 35 35 44 31 42 39 34 30 29 27 26 24 21 22 22 21 18 16
15 17 19 22 19 20 20 24 24 24 19 24 27 20 18 17 11 11 10 8 15 28 33 36 19 30 30 41 46 44 43 36 32 30 28 26 23 21 22 21 20 18 15 13
16 17 18 21 23 27 31 33 27 28 22 27 25 20 14 16 8 8 11 7 23 25 37 40 28 28 21 42 53 47 40 35 32 27 23 23 22 22 21 20 17 15 14 12
18 17 17 17 23 26 33 37 40 34 30 28 26 16 14 9 10 14 13 18 28 25 28 27 23 18 30 47 55 40 35 30 27 25 24 22 21 20 19 17 14 13 14 14
14 17 16 18 25 31 35 47 43 33 23 19 14 14 14 12 22 21 19 17 20 29 30 28 22 23 50 52 47 38 31 27 26 23 21 20 20 19 17 14 13 15 14 14
15 15 11 18 22 25 35 44 40 31 17 7 12 11 13 16 24 31 33 20 27 33 35 27 21 9 45 43 39 36 30 27 23 22 20 19 18 15 16 16 15 15 14 14
14 11 11 15 28 32 38 36 27 18 7 11 17 13 20 22 25 31 47 36 28 36 38 35 29 23 39 37 35 31 25 22 22 20 20 17 13 13 14 15 15 14 15 14
9 11 16 19 29 35 38 29 16 11 12 14 16 15 23 25 21 28 38 30 25 32 36 30 20 35 34 34 31 26 24 23 21 19 15 13 13 12 12 13 13 15 14 12
8 12 17 29 36 36 34 15 11 10 8 4 4 13 22 19 19 20 20 21 27 34 35 32 41 31 36 33 28 26 26 25 22 17 15 14 12 12 13 12 13 13 13 13
Wind_Direction
264 263 260 260 262 261 259 257 256 252 250 249 252 249 246 243 242 243 239 235 239 233 220 219 224 230 239 242 242 247 251 253 252 260 260 263 273 283 285 285 285 284 287 291
263 266 269 269 267 265 265 262 259 258 257 258 253 250 247 247 247 244 245 244 241 239 231 227 220 229 233 237 244 250 250 252 256 257 263 266 271 277 277 282 285 285 287 290
271 270 270 270 270 271 269 266 265 263 258 257 256 251 249 246 247 246 242 245 246 245 240 233 229 230 232 236 238 243 249 253 253 257 260 263 269 271 282 278 274 274 281 286
273 273 272 272 274 274 273 272 272 270 267 264 261 261 249 248 247 247 246 244 242 242 242 241 236 231 232 233 238 245 245 248 257 261 264 274 273 263 256 261 265 269 274 281
276 274 271 271 272 271 273 271 270 269 267 266 262 262 249 248 248 247 249 246 244 243 244 241 239 234 234 236 239 243 247 251 250 257 264 260 259 260 251 250 258 265 270 277
295 297 295 298 297 297 293 288 280 276 272 266 265 263 252 255 251 246 241 244 243 242 242 241 239 237 231 233 235 240 248 253 257 259 260 256 251 251 256 262 265 268 272 274
305 303 299 298 298 299 309 320 307 288 276 273 266 262 259 257 255 249 244 239 241 240 240 242 244 243 237 229 230 232 238 244 249 254 255 254 250 251 258 261 269 266 269 272
308 305 305 298 297 299 295 305 296 284 280 265 255 271 267 254 256 253 251 248 239 238 238 238 241 243 243 239 230 238 238 244 248 249 251 252 251 247 254 255 262 266 270 269
303 305 302 300 295 296 293 298 293 263 267 269 272 263 251 252 266 259 252 246 248 241 236 235 236 238 241 242 241 231 239 245 248 251 250 249 249 247 251 259 268 267 267 270
302 305 303 302 294 290 287 292 290 262 270 275 269 260 258 257 260 265 268 261 250 241 235 233 232 235 236 238 240 238 235 240 247 250 250 246 247 250 254 261 262 262 263 262
303 307 325 315 307 293 273 281 282 261 261 273 275 272 275 286 270 270 257 256 256 245 229 228 228 228 232 233 235 239 233 237 240 244 246 243 248 255 262 257 254 254 256 258
295 302 304 308 303 302 296 287 268 263 261 268 278 271 299 291 292 280 256 259 260 247 225 220 223 226 228 229 230 232 228 225 228 233 237 239 246 252 255 248 246 248 251 254
305 317 307 295 301 319 302 297 279 266 260 259 278 278 293 295 299 294 284 274 253 256 219 210 214 222 224 224 226 226 225 216 219 223 227 232 241 246 244 240 242 244 245 252
298 303 311 303 310 311 316 294 266 269 261 267 276 288 278 285 292 310 288 267 267 251 218 205 207 220 220 216 218 224 219 211 212 218 224 233 237 232 231 234 237 239 244 247
316 323 321 327 316 322 321 305 266 259 263 267 277 278 278 281 286 296 307 331 247 233 210 204 209 214 215 216 214 217 218 207 208 212 219 221 220 221 226 227 230 237 239 243
303 324 331 335 337 340 337 303 294 268 258 268 281 291 276 277 289 314 318 283 204 204 201 215 214 216 212 216 214 199 198 198 202 206 207 211 212 218 219 227 229 237 235 231
310 312 316 327 326 331 329 324 312 289 276 276 288 286 281 275 277 303 330 312 181 190 214 206 201 188 219 227 217 199 184 190 197 197 201 204 208 215 220 227 232 230 224 230
310 320 319 324 329 336 336 324 307 304 293 290 299 284 271 262 250 280 302 250 242 227 207 213 210 220 191 194 195 184 173 184 185 193 196 202 207 213 219 223 218 218 226 239
310 321 318 318 333 338 319 324 318 296 284 302 309 296 288 235 234 250 257 286 217 198 200 205 198 186 198 193 175 160 167 167 178 188 191 198 207 211 213 211 208 217 230 223
303 310 307 317 322 335 333 343 325 300 298 294 301 299 262 233 222 236 249 244 188 185 191 204 210 195 194 202 152 152 157 168 179 183 192 201 205 203 202 204 209 219 210 220
292 287 293 310 320 329 329 332 328 316 305 305 299 266 226 216 230 213 237 201 194 194 192 197 205 210 213 144 154 153 158 169 176 185 194 196 191 193 199 201 208 205 217 221
291 282 297 310 323 323 321 325 326 317 313 301 272 245 198 221 205 223 212 190 183 179 186 200 207 123 114 141 150 147 162 172 179 180 181 182 189 193 195 200 204 214 215 213
295 289 305 316 327 330 317 323 323 319 320 264 282 217 191 203 204 197 197 175 174 177 190 197 194 143 137 138 146 151 164 171 169 170 177 183 189 190 197 205 211 215 208 204
294 278 281 314 327 330 328 323 316 317 319 293 276 206 183 190 184 198 203 205 179 191 195 199 179 146 140 145 147 151 160 157 163 172 177 179 184 194 204 207 212 214 202 199
283 290 317 344 324 325 328 330 300 301 300 272 265 225 177 185 195 206 201 200 195 202 198 199 162 148 150 146 148 153 154 158 166 172 172 181 185 196 202 203 205 191 189 190
298 300 311 332 325 328 334 337 303 304 299 338 249 233 171 178 195 197 198 193 198 200 195 188 172 156 152 150 151 156 158 161 163 169 177 182 194 198 193 186 180 178 190 192
Height
5706 5708 5709 5709 5708 5710 5712 5713 5713 5713 5714 5716 5719 5726 5734 5738 5739 5743 5747 5751 5755 5764 5767 5772 5780 5786 5785 5788 5794 5796 5798 5803 5809 5811 5815 5817 5819 5822 5824 5825 5826 5825 5823 5823
5700 5700 5698 5698 5698 5700 5701 5701 5700 5703 5702 5703 5704 5711 5723 5726 5727 5733 5736 5741 5745 5750 5759 5762 5763 5769 5773 5778 5782 5785 5790 5794 5797 5803 5807 5809 5813 5813 5814 5815 5816 5812 5810 5812
5692 5692 5690 5689 5688 5689 5689 5686 5685 5687 5690 5688 5684 5699 5706 5712 5711 5716 5722 5725 5730 5735 5741 5748 5750 5753 5759 5763 5771 5775 5776 5780 5788 5793 5796 5798 5803 5806 5808 5810 5811 5806 5804 5805
5684 5683 5682 5680 5679 5678 5677 5676 5673 5674 5673 5673 5677 5677 5689 5697 5696 5698 5704 5708 5713 5715 5721 5729 5740 5743 5745 5750 5756 5760 5766 5771 5776 5782 5785 5790 5794 5795 5798 5800 5799 5797 5797 5797
5677 5675 5673 5671 5670 5668 5665 5664 5661 5661 5657 5654 5665 5653 5677 5679 5681 5687 5688 5689 5692 5699 5704 5713 5721 5732 5738 5742 5746 5750 5752 5758 5765 5770 5777 5784 5786 5786 5785 5785 5785 5785 5786 5788
5667 5663 5660 5658 5657 5655 5651 5649 5649 5647 5645 5639 5649 5642 5657 5660 5665 5665 5666 5667 5673 5681 5688 5694 5702 5712 5725 5730 5734 5741 5745 5748 5752 5758 5766 5774 5776 5777 5775 5775 5774 5774 5776 5777
5658 5656 5653 5651 5650 5647 5641 5637 5632 5633 5631 5630 5630 5628 5640 5641 5640 5638 5641 5649 5655 5666 5674 5682 5689 5699 5709 5717 5721 5728 5735 5740 5745 5750 5756 5763 5765 5765 5764 5763 5765 5766 5767 5765
5651 5652 5650 5645 5642 5638 5636 5634 5629 5619 5621 5620 5621 5618 5625 5623 5620 5622 5625 5628 5638 5647 5658 5669 5676 5684 5693 5702 5713 5718 5723 5731 5736 5741 5747 5752 5753 5754 5754 5754 5757 5758 5757 5756
5645 5646 5643 5640 5636 5631 5628 5626 5622 5614 5615 5610 5615 5616 5616 5615 5611 5611 5611 5613 5618 5630 5641 5652 5661 5671 5680 5688 5697 5708 5714 5719 5723 5730 5735 5740 5744 5744 5745 5746 5748 5748 5748 5750
5640 5639 5638 5633 5629 5629 5620 5617 5614 5609 5607 5604 5606 5604 5607 5607 5603 5604 5603 5602 5605 5612 5623 5636 5648 5658 5666 5675 5683 5693 5702 5709 5714 5718 5722 5727 5732 5733 5734 5737 5739 5741 5742 5742
5634 5632 5632 5626 5622 5618 5615 5608 5605 5603 5603 5598 5596 5596 5598 5596 5595 5593 5592 5591 5592 5597 5607 5621 5630 5642 5654 5664 5674 5684 5693 5699 5703 5708 5713 5717 5720 5722 5725 5729 5732 5734 5734 5734
5631 5625 5622 5620 5615 5610 5605 5600 5596 5594 5595 5593 5590 5589 5590 5587 5586 5582 5583 5583 5582 5584 5596 5606 5617 5630 5642 5653 5663 5673 5682 5688 5693 5697 5702 5706 5710 5715 5719 5723 5724 5726 5726 5727
5622 5619 5614 5614 5610 5603 5596 5592 5589 5587 5585 5587 5585 5585 5584 5583 5582 5577 5574 5575 5575 5577 5587 5595 5606 5617 5628 5639 5650 5658 5669 5676 5681 5688 5693 5699 5703 5708 5712 5714 5716 5718 5719 5720
5616 5614 5610 5606 5601 5595 5590 5586 5581 5579 5578 5579 5579 5577 5578 5578 5575 5572 5568 5568 5568 5569 5577 5583 5593 5605 5616 5624 5632 5645 5657 5666 5672 5680 5686 5691 5697 5701 5704 5707 5709 5711 5713 5714
5610 5607 5602 5598 5592 5589 5583 5580 5576 5573 5572 5571 5574 5570 5571 5571 5569 5567 5562 5557 5559 5562 5568 5574 5581 5587 5596 5609 5622 5634 5645 5657 5664 5670 5677 5684 5690 5694 5697 5700 5703 5705 5707 5709
5604 5602 5598 5592 5589 5584 5580 5575 5572 5571 5570 5568 5565 5563 5563 5562 5564 5562 5557 5555 5554 5557 5563 5569 5580 5586 5590 5600 5612 5618 5633 5648 5657 5665 5672 5678 5682 5687 5692 5694 5698 5700 5702 5704
5600 5597 5594 5591 5587 5581 5578 5572 5569 5566 5564 5561 5558 5557 5554 5555 5559 5557 5555 5554 5558 5562 5565 5570 5574 5579 5581 5591 5600 5614 5629 5642 5652 5660 5667 5672 5678 5682 5686 5690 5693 5695 5698 5699
5596 5593 5588 5587 5583 5578 5572 5566 5563 5561 5557 5554 5551 5547 5547 5547 5551 5554 5553 5549 5550 5555 5559 5565 5576 5581 5581 5583 5591 5593 5621 5637 5647 5656 5662 5667 5674 5677 5681 5685 5688 5690 5692 5692
5592 5588 5584 5580 5578 5576 5571 5565 5559 5554 5554 5547 5544 5540 5540 5537 5545 5550 5548 5544 5546 5552 5558 5565 5573 5575 5579 5585 5592 5604 5619 5632 5644 5653 5659 5664 5670 5673 5677 5680 5684 5685 5687 5688
5587 5584 5580 5576 5572 5567 5562 5558 5553 5549 5546 5543 5540 5536 5533 5533 5543 5544 5542 5544 5547 5552 5556 5563 5567 5576 5575 5582 5585 5604 5619 5634 5644 5649 5656 5662 5665 5669 5673 5676 5679 5681 5683 5684
5582 5579 5576 5572 5567 5564 5558 5553 5547 5542 5540 5535 5528 5528 5526 5532 5540 5541 5540 5544 5551 5555 5556 5560 5565 5568 5568 5584 5590 5608 5623 5633 5640 5647 5654 5658 5661 5665 5669 5672 5674 5677 5679 5681
5576 5573 5571 5568 5563 5557 5552 5545 5540 5534 5532 5527 5522 5521 5526 5533 5538 5539 5542 5547 5554 5557 5555 5560 5561 5567 5565 5588 5596 5611 5623 5632 5641 5645 5649 5654 5659 5663 5666 5669 5671 5674 5676 5678
5571 5569 5568 5565 5560 5555 5549 5539 5531 5526 5526 5524 5521 5521 5525 5532 5538 5544 5546 5550 5555 5559 5559 5559 5562 5566 5578 5590 5602 5613 5624 5633 5638 5642 5647 5652 5657 5660 5662 5665 5668 5671 5673 5675
5566 5563 5562 5558 5555 5551 5543 5534 5525 5523 5524 5522 5519 5517 5524 5532 5538 5544 5548 5555 5559 5562 5564 5568 5564 5576 5588 5597 5605 5613 5623 5629 5634 5640 5647 5651 5654 5656 5659 5662 5665 5668 5670 5673
5561 5561 5558 5553 5550 5545 5537 5525 5520 5520 5519 5518 5517 5518 5523 5531 5541 5547 5555 5560 5561 5561 5566 5569 5579 5586 5596 5600 5608 5616 5622 5628 5635 5641 5645 5649 5652 5654 5656 5659 5662 5665 5668 5671
5559 5557 5554 5549 5544 5538 5530 5521 5518 5517 5517 5516 5517 5519 5524 5533 5540 5547 5553 5557 5560 5564 5569 5575 5573 5569 5596 5606 5613 5619 5625 5631 5635 5640 5644 5647 5649 5651 5654 5658 5661 5664 5666 5668